GW5208 Weather Reports


Display with metric or nautical units.
time (UTC)temp
F
wind
direction
speed
MPH
gust
MPH
rain 1hr
in
rain 24hr
in
rain mn
in
humidity
%
barometer
mb
20260901084526 50 318 0.0 0.0 0.00 0.00 0.00 67 1014.4
20260901083030 50 314 0.0 0.0 0.00 0.00 0.00 67 1014.5
20260901081533 52 333 0.0 0.0 0.00 0.00 0.00 65 1014.6
20260901080036 52 350 0.0 0.0 0.00 0.00 0.00 64 1014.6
20260901074543 52 101 0.0 0.0 0.00 0.00 0.00 62 1014.9
20260901073037 53 101 0.0 0.0 0.00 0.00 0.00 61 1015.0
20260901071510 54 101 0.0 0.0 0.00 0.00 0.00 60 1015.0
20260901070014 55 99 0.0 0.0 0.00 0.00 0.00 58 1015.0
20260901064522 54 99 0.0 0.0 0.00 0.00 0.00 60 1015.0
20260901063015 54 99 0.0 0.0 0.00 0.00 0.00 60 1014.8
20260901061508 55 99 0.0 0.0 0.00 0.00 0.00 58 1014.9
20260901060011 55 169 0.0 0.0 0.00 0.00 0.00 58 1014.9
20260901054519 56 169 0.0 0.0 0.00 0.00 0.00 59 1015.1
20260901053022 56 169 0.0 0.0 0.00 0.00 0.00 59 1015.2
20260901051517 57 169 0.0 0.0 0.00 0.00 0.00 57 1015.3
20260901050010 59 163 0.0 0.0 0.00 0.00 0.00 55 1015.3
20260901044517 60 153 0.0 0.0 0.00 0.00 0.00 51 1015.4
20260901043025 59 77 0.0 0.0 0.00 0.00 0.00 52 1015.3
20260901041504 59 77 0.0 0.0 0.00 0.00 0.00 51 1015.2
20260901040011 60 77 0.0 0.0 0.00 0.00 0.00 49 1015.1
20260901034511 60 77 0.0 0.0 0.00 0.00 0.00 48 1015.0
20260901033018 60 77 0.0 0.0 0.00 0.00 0.00 49 1014.7
20260901031544 61 77 0.0 0.0 0.00 0.00 0.00 45 1014.6
20260901030007 62 77 0.0 0.0 0.00 0.00 0.00 43 1014.4
20260901024510 64 77 0.0 0.0 0.00 0.00 0.00 40 1014.3
20260901023020 66 77 0.0 0.0 0.00 0.00 0.00 38 1014.2
20260901021527 69 77 0.0 0.0 0.00 0.00 0.00 35 1014.3
20260901020027 72 77 0.0 0.0 0.00 0.00 0.00 33 1014.3
20260901014527 75 77 0.0 0.0 0.00 0.00 0.00 31 1014.3
20260901013014 75 77 0.0 0.0 0.00 0.00 0.00 31 1014.4
20260901011528 76 123 0.0 0.0 0.00 0.00 0.00 30 1014.4
20260901010031 77 113 0.0 0.0 0.00 0.00 0.00 29 1014.5
20260901004535 78 159 0.0 0.0 0.00 0.00 0.00 27 1014.6
20260901003014 77 146 0.0 0.0 0.00 0.00 0.00 27 1014.6
20260901001520 77 136 0.0 0.0 0.00 0.00 0.00 29 1014.7
20260901000028 78 155 0.0 0.0 0.00 0.00 0.00 27 1014.9
20260831234530 78 166 0.0 0.0 0.00 0.00 0.00 27 1015.0
20260831233033 77 234 0.0 0.0 0.00 0.00 0.00 28 1015.0
20260831231518 77 311 0.0 0.0 0.00 0.00 0.00 28 1015.0
20260831230026 77 252 0.0 0.0 0.00 0.00 0.00 28 1015.2
20260831224528 76 207 0.0 0.0 0.00 0.00 0.00 31 1015.3
20260831223031 77 147 0.0 0.0 0.00 0.00 0.00 29 1015.3
20260831221515 76 127 0.0 0.0 0.00 0.00 0.00 30 1015.5
20260831220003 76 210 0.0 0.0 0.00 0.00 0.00 29 1015.5
20260831214504 75 263 0.0 0.0 0.00 0.00 0.00 29 1015.6
20260831213008 74 312 0.0 0.0 0.00 0.00 0.00 31 1015.7
20260831211518 73 62 0.0 0.0 0.00 0.00 0.00 31 1015.7
20260831210021 74 244 0.0 0.0 0.00 0.00 0.00 31 1015.9
20260831204504 75 255 0.0 0.0 0.00 0.00 0.00 31 1016.0
20260831203008 74 245 0.0 0.0 0.00 0.00 0.00 32 1016.2
20260831201513 74 210 0.0 0.0 0.00 0.00 0.00 34 1016.3
20260831200017 72 267 0.0 0.0 0.00 0.00 0.00 36 1016.4
20260831194523 72 241 0.0 0.0 0.00 0.00 0.00 37 1016.5
20260831193007 72 251 0.0 0.0 0.00 0.00 0.00 38 1016.6
20260831191509 71 209 0.0 0.0 0.00 0.00 0.00 36 1016.8
20260831190016 71 257 0.0 0.0 0.00 0.00 0.00 36 1017.0
20260831184523 70 264 0.0 0.0 0.00 0.00 0.00 40 1017.2
20260831183032 70 266 0.0 0.0 0.00 0.00 0.00 41 1017.3
20260831181510 70 291 0.0 0.0 0.00 0.00 0.00 39 1017.6
20260831180017 69 30 0.0 0.0 0.00 0.00 0.00 42 1017.6
20260831174521 68 263 0.0 0.0 0.00 0.00 0.00 42 1017.7
20260831173028 68 236 0.0 0.0 0.00 0.00 0.00 42 1017.7
20260831171505 67 359 0.0 0.0 0.00 0.00 0.00 42 1017.7
20260831170013 67 338 0.0 0.0 0.00 0.00 0.00 44 1017.8
20260831164520 65 295 0.0 0.0 0.00 0.00 0.00 44 1017.8
20260831163025 65 350 0.0 0.0 0.00 0.00 0.00 44 1017.8
20260831161533 64 306 0.0 0.0 0.00 0.00 0.00 45 1017.6
20260831160012 63 232 0.0 0.0 0.00 0.00 0.00 46 1017.6
20260831154551 62 281 0.0 0.0 0.00 0.00 0.00 48 1017.6
20260831153024 61 298 0.0 0.0 0.00 0.00 0.00 52 1017.5
20260831151534 59 182 0.0 0.0 0.00 0.00 0.00 54 1017.6
20260831150034 57 243 0.0 0.0 0.00 0.00 0.00 57 1017.5
20260831144515 55 234 0.0 0.0 0.00 0.00 0.00 62 1017.3
20260831143022 53 288 0.0 0.0 0.00 0.00 0.00 67 1017.2
20260831141528 51 259 0.0 0.0 0.00 0.00 0.00 70 1017.1
20260831140031 50 283 0.0 0.0 0.00 0.00 0.00 71 1016.9
20260831134531 48 297 0.0 0.0 0.00 0.00 0.00 73 1016.8
20260831133020 49 326 0.0 0.0 0.00 0.00 0.00 72 1016.6
20260831131526 49 331 0.0 0.0 0.00 0.00 0.00 71 1016.3
20260831130007 48 320 0.0 0.0 0.00 0.00 0.00 72 1016.0
20260831124510 47 261 0.0 0.0 0.00 0.00 0.00 72 1015.9
20260831123022 47 319 0.0 0.0 0.00 0.00 0.00 72 1015.9
20260831121514 48 278 0.0 0.0 0.00 0.00 0.00 71 1015.9
20260831120007 48 292 0.0 0.0 0.00 0.00 0.00 71 1015.6
20260831114510 48 266 0.0 0.0 0.00 0.00 0.00 71 1015.7
20260831113016 49 272 0.0 0.0 0.00 0.00 0.00 69 1015.5
20260831111520 49 269 0.0 0.0 0.00 0.00 0.00 68 1015.4
20260831110016 50 264 0.0 0.0 0.00 0.00 0.00 67 1015.3
20260831104512 50 269 0.0 0.0 0.00 0.00 0.00 67 1015.3
20260831103013 50 251 0.0 0.0 0.00 0.00 0.00 66 1015.2
20260831101527 50 245 0.0 0.0 0.00 0.00 0.00 66 1014.9
20260831100020 50 248 0.0 0.0 0.00 0.00 0.00 67 1014.9
20260831094521 51 251 0.0 0.0 0.00 0.00 0.00 64 1014.9
20260831093007 53 264 0.0 0.0 0.00 0.00 0.00 61 1014.8
20260831091529 54 259 0.0 0.0 0.00 0.00 0.00 59 1014.6
20260831090023 54 276 0.0 0.0 0.00 0.00 0.00 59 1014.4